Theta_e
311 310 312 312 310 312 312 312 313 312 312 312 311 310 312 312 311 310 312 312 312 313 313 311 310 310 310 310 311 312 313 314 321 318 321 322 323 323 325 323 323 323 323 321
310 310 311 312 310 311 312 313 312 311 311 311 311 312 309 309 309 312 313 314 313 312 311 310 309 309 309 310 311 312 313 314 317 318 319 321 321 322 321 321 321 321 320 320
312 313 311 311 311 311 310 311 312 313 312 310 310 313 310 309 310 313 314 315 314 313 312 310 309 309 308 309 311 312 313 313 315 317 318 320 321 321 320 320 321 318 317 316
311 311 312 311 312 311 313 310 311 312 314 315 311 317 314 311 310 308 311 313 311 311 310 310 310 309 309 309 310 312 313 314 314 316 317 319 320 320 320 319 316 313 310 302
314 312 312 313 312 311 313 311 311 313 312 312 312 314 315 312 312 310 311 312 312 312 312 311 310 309 309 308 310 312 312 314 313 316 317 318 317 318 317 315 311 312 304 298
311 311 311 312 311 311 310 311 310 308 310 314 313 313 319 314 313 312 311 312 313 313 312 309 309 308 307 308 310 310 310 313 313 315 316 317 316 317 316 311 304 301 300 295
313 311 311 311 311 310 311 312 315 314 313 317 310 312 317 313 312 311 309 311 311 312 310 308 307 307 307 308 309 309 311 312 314 315 315 315 315 314 312 308 305 302 298 294
314 316 311 309 312 313 310 312 314 315 315 314 311 313 314 309 311 312 310 309 310 309 308 307 307 307 306 308 308 309 311 312 313 313 314 313 310 308 304 303 299 296 294 293
312 314 310 309 310 312 311 312 313 313 298 310 313 312 311 309 308 309 306 308 308 307 306 305 305 305 306 308 307 309 310 310 311 313 311 309 309 304 303 301 295 293 293 292
313 316 311 310 311 310 310 310 314 314 315 316 313 312 315 313 312 308 305 304 304 305 304 304 304 305 306 307 307 307 308 309 311 311 309 309 309 302 302 294 292 292 292 292
312 314 314 310 311 311 311 312 312 314 312 312 312 315 308 312 311 307 305 306 305 305 304 305 304 304 305 306 306 307 308 308 307 306 306 307 305 302 293 292 291 291 291 290
310 313 311 312 310 309 310 312 314 317 314 312 311 317 308 308 306 306 307 306 305 304 304 304 304 304 304 305 306 307 308 308 307 306 306 304 300 294 290 290 290 290 290 290
313 313 316 314 315 313 311 311 313 315 313 313 318 318 305 306 307 307 307 306 305 304 304 304 303 303 303 303 304 306 306 307 305 304 303 300 294 290 290 289 289 289 289 289
313 312 313 319 315 313 313 310 311 315 317 316 317 318 315 310 307 307 307 307 308 306 304 304 303 304 303 302 302 304 304 304 303 302 301 296 290 290 289 289 289 289 289 289
314 317 313 313 312 311 311 312 311 314 315 318 318 315 315 312 310 312 312 311 307 307 306 306 304 302 301 301 300 301 303 303 302 300 298 295 292 289 289 288 288 289 288 288
312 318 313 316 312 311 312 309 311 312 314 315 315 316 315 313 313 311 312 310 307 308 310 307 304 301 302 301 299 299 300 301 300 299 297 294 290 289 288 288 288 288 288 288
310 317 316 319 314 313 315 315 314 313 313 313 315 315 314 311 311 312 312 311 311 312 312 310 308 305 302 301 300 298 298 299 297 295 295 292 290 289 288 288 288 288 288 288
310 309 310 316 311 317 313 308 310 312 312 312 312 312 311 312 312 312 312 312 312 312 311 310 309 307 305 301 299 298 297 297 295 294 292 291 290 288 288 288 288 288 288 287
308 311 314 315 315 312 311 304 307 310 313 311 312 312 312 313 310 311 312 312 312 312 312 311 309 306 301 300 298 296 295 296 294 293 292 291 290 288 288 288 288 288 288 287
302 305 310 311 312 314 309 298 302 304 314 299 309 310 310 307 307 310 311 311 310 310 310 309 307 304 302 301 297 295 295 295 294 293 292 291 290 289 288 288 288 288 288 287
303 303 308 310 311 308 304 299 303 310 307 300 303 306 306 303 307 307 309 309 309 309 308 308 308 307 306 304 301 298 295 296 295 292 291 291 290 290 289 288 287 288 288 288
304 306 306 307 309 309 300 299 307 303 298 298 298 301 303 304 306 306 307 308 308 307 307 306 305 305 304 303 300 298 298 297 293 293 293 291 290 290 288 287 287 287 287 289
304 302 303 306 306 300 300 301 302 300 300 298 298 299 301 304 303 304 304 305 305 306 306 306 305 303 302 302 301 300 300 297 295 295 294 293 292 290 290 289 288 288 287 289
296 295 299 300 300 299 300 300 299 300 300 298 298 298 301 303 303 303 300 299 299 299 299 300 301 303 302 301 299 298 296 296 296 295 293 292 292 292 290 288 288 288 287 289
297 296 297 298 299 298 301 301 303 303 301 298 297 296 299 300 300 298 297 296 296 296 297 298 299 300 300 299 299 297 296 294 293 292 292 291 290 290 291 291 289 289 288 289
293 296 300 301 301 302 303 303 303 301 302 300 297 296 296 295 295 295 295 295 295 295 296 298 298 298 297 297 297 297 296 294 293 292 291 290 290 289 289 288 288 287 286 286
Wind_Speed
4 4 8 14 9 4 4 4 5 4 3 2 8 10 18 18 20 24 29 31 39 41 37 32 31 29 28 27 27 25 24 24 28 29 30 31 32 26 26 22 23 23 20 16
3 8 14 5 5 5 3 4 7 6 5 6 10 16 11 13 14 29 39 41 43 42 41 37 34 32 30 28 27 25 24 25 27 27 30 29 30 34 25 25 23 21 23 17
8 5 6 9 5 6 6 7 5 7 6 4 6 13 8 10 24 34 40 46 43 45 44 40 38 36 32 31 29 27 25 24 26 29 29 30 35 32 30 30 27 24 22 21
7 6 5 6 6 9 6 9 7 5 1 5 3 14 7 8 12 8 32 43 34 38 38 39 41 39 36 32 28 27 26 27 28 30 32 33 34 32 33 30 27 27 24 22
7 6 6 5 7 8 6 6 7 2 3 3 1 3 2 3 5 11 22 29 31 33 37 39 42 43 37 32 30 28 28 28 27 29 32 39 36 34 35 34 32 26 24 23
4 2 6 7 2 6 6 5 5 4 2 6 10 8 29 2 6 6 5 12 17 22 29 32 36 41 37 34 31 29 28 30 30 36 38 39 39 33 38 36 34 32 29 28
2 5 3 5 5 3 4 6 1 3 1 8 4 6 17 9 10 6 9 22 20 20 25 29 33 40 39 36 32 30 30 32 33 38 38 40 36 41 40 38 36 35 34 31
7 5 12 7 10 8 7 7 6 7 4 4 2 8 6 7 14 14 15 14 13 15 21 26 30 38 40 35 32 31 32 33 35 38 39 40 40 40 40 39 38 35 33 30
7 6 1 3 2 10 5 5 4 5 2 2 5 8 9 10 10 19 8 11 10 14 20 24 28 35 36 35 32 31 34 35 37 38 37 36 37 38 38 35 35 34 31 28
4 2 1 2 4 4 6 6 4 2 3 6 5 6 9 8 9 7 6 12 11 13 17 21 27 33 33 31 29 31 32 35 35 37 37 37 38 40 37 38 37 34 31 27
6 3 1 3 5 10 4 3 2 5 5 4 3 7 7 6 3 7 9 10 12 13 17 21 26 30 30 30 31 31 34 35 36 36 36 37 38 38 40 39 37 33 29 25
8 4 4 8 1 1 2 9 8 4 6 4 2 11 3 4 3 6 11 6 8 13 15 20 25 28 29 30 31 33 35 36 36 36 37 37 39 41 42 39 36 32 29 25
9 3 2 4 1 1 5 6 15 5 3 8 5 9 0 0 3 4 6 4 6 10 15 21 26 29 31 31 32 35 36 36 37 37 36 38 41 44 42 39 35 31 28 25
10 4 7 12 5 5 6 8 10 12 7 6 17 22 21 2 6 5 3 4 5 10 16 20 27 31 32 35 35 37 38 37 38 38 38 40 45 45 43 40 36 32 28 24
6 9 9 10 5 4 7 7 15 19 27 12 23 16 32 11 12 18 18 16 15 18 21 25 29 33 34 37 38 40 41 42 40 40 40 43 46 46 43 40 36 32 29 25
4 6 9 16 16 12 11 10 18 19 19 18 26 23 32 6 11 16 24 20 20 24 28 29 30 33 35 38 41 42 43 43 42 42 43 45 48 47 44 40 37 33 29 26
5 12 9 23 11 10 11 32 18 18 19 21 21 31 28 9 17 29 26 22 31 36 36 34 34 34 36 37 39 43 43 42 44 44 45 47 49 48 45 41 37 34 31 28
6 3 1 4 2 13 9 4 12 19 22 24 23 22 20 25 33 28 27 28 34 35 36 34 35 34 33 34 37 40 42 43 44 45 46 48 48 47 45 42 39 37 33 29
11 11 8 6 12 9 3 4 7 9 17 20 19 22 32 41 16 36 31 30 31 33 32 31 31 33 30 31 33 38 40 41 43 47 48 48 48 48 48 46 43 38 35 31
5 4 7 3 4 6 4 3 6 4 9 7 18 20 19 7 3 12 13 14 15 17 21 20 19 22 25 26 30 34 38 41 46 50 49 48 49 51 49 47 44 39 35 33
5 3 13 8 4 3 6 4 8 5 6 2 7 13 6 6 9 6 8 8 5 5 8 9 12 15 19 23 27 32 36 37 40 47 49 50 51 49 47 46 45 42 40 36
7 7 3 3 5 7 14 6 9 4 3 1 2 4 8 14 15 11 5 3 3 3 7 9 12 15 19 23 26 30 31 32 37 40 43 46 46 46 47 48 46 44 44 38
4 6 5 9 6 1 22 2 13 7 6 3 3 5 6 6 10 7 5 5 4 4 6 9 12 14 18 21 24 29 29 32 33 35 38 41 45 47 49 49 48 46 48 42
5 4 3 2 5 5 8 14 10 10 9 6 5 5 5 6 8 8 5 3 2 1 2 4 7 11 16 18 21 22 25 27 29 31 33 36 40 43 49 50 51 50 53 50
3 5 4 4 5 4 13 14 11 16 14 10 9 8 7 7 8 8 5 4 3 3 4 5 5 5 6 9 12 15 18 20 23 25 27 30 35 41 46 50 56 57 56 54
7 7 5 5 7 3 6 6 10 19 19 19 15 12 11 10 9 8 7 6 5 5 7 7 6 6 7 7 7 10 12 15 18 22 24 25 28 32 37 43 50 52 53 52
Wind_Direction
157 130 198 211 200 164 150 199 235 247 246 205 235 239 259 246 230 243 244 239 236 236 237 232 231 226 222 220 221 221 219 208 201 204 207 214 221 216 201 201 213 206 203 216
71 224 220 146 162 199 186 214 248 298 232 191 269 260 242 243 229 239 242 243 241 238 235 228 224 222 221 222 221 219 217 214 207 209 210 209 218 206 213 209 220 212 198 206
180 213 181 172 160 169 218 213 239 232 315 241 305 270 226 246 233 243 248 252 249 242 235 225 221 221 219 220 219 218 216 215 210 205 207 209 202 225 201 183 197 181 184 183
239 228 150 163 192 172 223 202 201 240 96 257 10 294 200 228 239 225 245 246 244 243 243 235 224 222 220 219 217 217 214 212 209 212 214 221 207 188 190 186 180 177 179 173
236 176 178 184 198 159 222 137 177 196 195 327 185 271 106 194 251 254 253 252 252 252 249 241 229 223 218 217 216 213 211 208 207 204 205 196 195 202 189 181 176 180 176 174
224 148 154 206 110 151 142 85 59 58 69 271 194 174 283 181 217 254 304 271 263 255 249 238 229 219 213 213 212 212 210 207 207 212 213 212 203 200 185 183 178 174 177 176
139 212 206 166 91 51 116 103 313 331 9 246 329 208 252 309 293 246 284 288 291 258 238 228 221 211 209 209 207 209 207 205 206 203 205 199 207 195 189 185 183 178 179 178
175 263 174 191 186 182 189 162 160 205 208 274 299 240 251 239 274 277 278 290 287 248 232 228 219 210 208 208 208 206 206 206 209 211 214 214 205 194 188 186 184 180 177 175
176 267 200 189 117 152 191 196 170 82 84 4 233 290 295 266 279 268 282 278 256 240 230 224 215 208 207 209 210 209 208 208 210 213 211 206 204 194 194 190 185 182 179 177
212 240 205 124 106 45 162 161 95 78 197 237 273 265 234 282 278 328 272 256 245 225 228 225 213 206 208 211 212 211 215 214 213 213 210 206 199 197 196 190 185 184 182 180
159 166 242 116 203 176 136 170 166 131 160 192 293 258 215 233 272 299 301 287 237 228 222 217 212 210 211 211 214 214 211 213 214 211 209 205 201 196 191 189 187 185 183 180
203 155 182 201 174 303 249 191 175 148 207 225 147 268 175 212 273 301 312 311 235 228 222 216 213 215 216 216 216 213 210 212 214 213 209 203 197 193 192 190 188 185 184 179
174 187 166 314 46 357 216 210 200 132 75 208 180 259 231 321 287 286 303 309 226 224 217 217 217 217 221 222 218 214 214 214 214 213 210 202 197 193 192 191 189 187 185 183
146 160 193 228 191 137 186 184 199 186 207 161 227 259 257 311 275 273 303 284 254 238 236 228 220 220 222 224 220 217 216 217 216 214 210 202 197 197 195 192 191 189 187 187
176 207 200 245 224 203 197 190 200 206 223 199 248 226 260 224 238 261 276 261 235 238 239 241 232 226 222 221 222 220 219 217 216 216 211 206 203 198 196 194 192 191 190 188
205 236 171 251 230 229 236 221 212 217 236 233 248 252 256 202 254 266 258 252 240 244 252 248 241 234 230 225 224 222 221 219 217 215 212 208 202 199 197 195 194 193 192 191
199 222 205 242 226 199 226 235 223 222 231 227 232 242 263 259 260 257 260 261 263 265 264 259 250 243 238 233 228 225 224 221 217 214 212 207 204 200 197 197 196 197 197 196
179 241 206 244 150 221 236 145 218 211 232 230 238 250 257 257 264 271 267 267 271 273 268 260 252 249 244 236 230 226 223 221 216 214 212 208 205 203 201 200 200 200 200 199
214 220 249 247 248 266 240 219 154 165 244 231 228 244 254 260 279 280 277 277 272 269 270 277 268 252 241 235 229 224 221 219 216 216 214 211 208 207 206 204 203 202 201 197
199 216 219 213 206 228 266 238 161 80 265 193 198 232 244 166 246 271 282 276 279 272 266 268 261 246 239 236 229 225 224 221 219 218 216 214 213 212 211 209 206 205 203 202
169 187 214 223 244 242 255 162 161 137 239 239 215 251 213 201 226 269 294 282 284 283 265 254 242 240 239 233 227 226 224 227 226 221 219 217 216 218 219 214 211 208 206 207
178 176 187 199 224 247 172 117 184 194 126 150 268 280 259 254 258 252 252 251 261 245 235 234 235 229 224 226 224 223 227 229 225 226 226 225 223 224 220 218 216 213 212 220
231 194 190 198 208 263 181 182 195 164 151 187 249 269 261 240 233 244 255 262 253 253 250 248 243 234 233 234 234 233 232 229 230 229 233 228 226 223 225 224 221 223 218 225
212 188 218 98 250 229 226 238 220 214 230 230 252 270 262 239 221 218 213 222 216 237 245 236 229 230 233 237 239 243 241 240 241 238 233 233 230 227 223 225 224 226 223 230
183 143 189 269 272 293 250 243 242 240 256 249 237 231 220 214 208 204 208 228 233 235 232 218 217 217 218 226 234 238 240 240 239 240 239 236 234 232 230 228 228 230 232 234
190 184 181 218 224 210 251 275 278 243 242 236 233 227 222 217 220 223 229 242 252 241 227 217 200 167 168 186 209 223 230 234 236 237 239 239 238 237 236 235 234 233 231 232